Location: *
(11.7485°N, 79.7483°E)
Time: 01:48:09
(UTC+00:00)

FALCON 9 DEB - Pass Details

Date: 22 January 2021
Orbit: 372 x 386 km, 53.0° (Epoch: 05 March)

Event Time Altitude Azimuth Distance (km) Brightness Sun altitude
Exits shadow 00:07:43 - 221° (SW) 1,619 5.8 -14.3°
Reaches altitude 10° 00:08:16 10° 222° (SW) 1,392 5.4 -14.2°
Maximum altitude 00:11:21 66° 305° (NW) 416 2.7 -13.5°
Drops below altitude 10° 00:14:25 10° 28° (NNE) 1,380 5.8 -12.8°
Sets 00:16:28 0° 32° (NNE) 2,227 6.9 -12.3°
